| time (UTC) | temp F | wind direction | speed MPH | gust MPH | rain 1hr in | rain 24hr in | rain mn in | humidity % | barometer mb |
| 20260904175556 | 62 | 275 | 5.0 | 14.0 | 0.04 | 0.58 | 0.55 | 94 | 1009.9 |
| 20260904175057 | 62 | 277 | 8.0 | 14.0 | 0.04 | 0.58 | 0.55 | 94 | 1009.7 |
| 20260904174608 | 62 | 269 | 7.0 | 14.0 | 0.05 | 0.58 | 0.55 | 95 | 1009.5 |
| 20260904174057 | 62 | 266 | 8.0 | 16.0 | 0.06 | 0.58 | 0.55 | 95 | 1009.3 |
| 20260904173557 | 62 | 268 | 8.0 | 16.0 | 0.07 | 0.58 | 0.55 | 95 | 1009.3 |
| 20260904173105 | 62 | 279 | 5.0 | 11.0 | 0.07 | 0.58 | 0.55 | 95 | 1009.2 |
| 20260904172557 | 62 | 269 | 4.0 | 11.0 | 0.09 | 0.58 | 0.55 | 95 | 1009.1 |
| 20260904172058 | 62 | 263 | 5.0 | 9.0 | 0.09 | 0.57 | 0.55 | 95 | 1009.3 |
| 20260904171601 | 62 | 265 | 3.0 | 8.0 | 0.11 | 0.56 | 0.54 | 95 | 1009.3 |
| 20260904171056 | 62 | 273 | 3.0 | 8.0 | 0.14 | 0.55 | 0.53 | 95 | 1009.1 |
| 20260904170558 | 62 | 286 | 2.0 | 8.0 | 0.16 | 0.54 | 0.51 | 95 | 1009.2 |
| 20260904170110 | 62 | 261 | 2.0 | 8.0 | 0.18 | 0.54 | 0.51 | 94 | 1009.1 |
| 20260904165557 | 61 | 241 | 4.0 | 9.0 | 0.20 | 0.53 | 0.51 | 94 | 1008.8 |
| 20260904165057 | 61 | 265 | 4.0 | 13.0 | 0.22 | 0.53 | 0.51 | 94 | 1008.8 |
| 20260904164606 | 61 | 271 | 7.0 | 16.0 | 0.22 | 0.52 | 0.50 | 94 | 1008.8 |
| 20260904164057 | 61 | 273 | 6.0 | 16.0 | 0.22 | 0.51 | 0.49 | 94 | 1009.0 |
| 20260904163557 | 61 | 253 | 8.0 | 16.0 | 0.22 | 0.51 | 0.48 | 94 | 1009.0 |
| 20260904163109 | 61 | 290 | 8.0 | 18.0 | 0.23 | 0.50 | 0.48 | 94 | 1009.0 |
| 20260904162557 | 61 | 258 | 8.0 | 18.0 | 0.24 | 0.48 | 0.46 | 94 | 1008.9 |
| 20260904162057 | 61 | 273 | 9.0 | 18.0 | 0.24 | 0.48 | 0.45 | 93 | 1008.6 |
| 20260904161602 | 61 | 278 | 10.0 | 19.0 | 0.22 | 0.45 | 0.43 | 93 | 1008.7 |
| 20260904161056 | 61 | 249 | 11.0 | 22.0 | 0.18 | 0.41 | 0.39 | 93 | 1008.8 |
| 20260904160559 | 61 | 255 | 10.0 | 22.0 | 0.14 | 0.37 | 0.35 | 92 | 1009.0 |
| 20260904160106 | 61 | 256 | 10.0 | 20.0 | 0.11 | 0.35 | 0.33 | 92 | 1008.8 |
| 20260904155556 | 61 | 244 | 12.0 | 24.0 | 0.10 | 0.33 | 0.30 | 92 | 1008.7 |
| 20260904155058 | 61 | 273 | 14.0 | 24.0 | 0.08 | 0.31 | 0.29 | 92 | 1008.7 |
| 20260904154607 | 61 | 292 | 10.0 | 20.0 | 0.07 | 0.30 | 0.28 | 92 | 1008.5 |
| 20260904154058 | 61 | 284 | 10.0 | 20.0 | 0.07 | 0.29 | 0.27 | 92 | 1008.6 |
| 20260904153558 | 61 | 291 | 9.0 | 19.0 | 0.07 | 0.29 | 0.26 | 91 | 1008.8 |
| 20260904153106 | 61 | 250 | 9.0 | 17.0 | 0.07 | 0.26 | 0.24 | 90 | 1009.0 |
| 20260904152557 | 62 | 276 | 8.0 | 17.0 | 0.06 | 0.24 | 0.22 | 90 | 1008.9 |
| 20260904152059 | 62 | 281 | 10.0 | 19.0 | 0.06 | 0.23 | 0.21 | 90 | 1008.8 |
| 20260904151603 | 62 | 284 | 11.0 | 19.0 | 0.06 | 0.23 | 0.21 | 90 | 1008.7 |
| 20260904151056 | 62 | 267 | 9.0 | 17.0 | 0.06 | 0.23 | 0.21 | 90 | 1009.0 |
| 20260904150556 | 62 | 258 | 8.0 | 20.0 | 0.06 | 0.23 | 0.21 | 91 | 1009.0 |
| 20260904150105 | 62 | 279 | 8.0 | 24.0 | 0.06 | 0.23 | 0.21 | 90 | 1008.9 |
| 20260904145555 | 62 | 271 | 14.0 | 28.0 | 0.05 | 0.22 | 0.20 | 89 | 1009.3 |
| 20260904145057 | 62 | 280 | 14.0 | 28.0 | 0.05 | 0.22 | 0.20 | 89 | 1009.5 |
| 20260904144603 | 63 | 261 | 13.0 | 25.0 | 0.05 | 0.22 | 0.20 | 89 | 1009.6 |
| 20260904144101 | 63 | 281 | 7.0 | 25.0 | 0.04 | 0.22 | 0.19 | 90 | 1009.6 |
| 20260904143557 | 63 | 273 | 9.0 | 25.0 | 0.04 | 0.21 | 0.18 | 89 | 1009.8 |
| 20260904143100 | 63 | 270 | 13.0 | 25.0 | 0.03 | 0.19 | 0.17 | 89 | 1009.8 |
| 20260904142557 | 64 | 286 | 11.0 | 25.0 | 0.14 | 0.18 | 0.15 | 88 | 1009.5 |
| 20260904142057 | 64 | 315 | 9.0 | 20.0 | 0.14 | 0.17 | 0.14 | 89 | 1009.0 |
| 20260904141625 | 63 | 278 | 9.0 | 19.0 | 0.14 | 0.17 | 0.14 | 89 | 1009.1 |
| 20260904141056 | 63 | 248 | 8.0 | 19.0 | 0.14 | 0.17 | 0.14 | 89 | 1009.1 |
| 20260904140556 | 63 | 267 | 10.0 | 19.0 | 0.14 | 0.17 | 0.14 | 89 | 1008.9 |
| 20260904140106 | 63 | 234 | 9.0 | 15.0 | 0.14 | 0.17 | 0.14 | 89 | 1008.8 |
| 20260904135557 | 63 | 260 | 9.0 | 16.0 | 0.14 | 0.17 | 0.14 | 89 | 1008.5 |
| 20260904135058 | 64 | 238 | 11.0 | 20.0 | 0.14 | 0.17 | 0.14 | 89 | 1008.3 |
| 20260904134605 | 64 | 254 | 10.0 | 21.0 | 0.14 | 0.17 | 0.14 | 89 | 1008.4 |
| 20260904134057 | 65 | 269 | 11.0 | 24.0 | 0.14 | 0.17 | 0.14 | 86 | 1008.3 |
| 20260904133557 | 66 | 275 | 12.0 | 39.0 | 0.13 | 0.16 | 0.14 | 83 | 1008.3 |
| 20260904133100 | 70 | 306 | 18.0 | 39.0 | 0.12 | 0.15 | 0.13 | 72 | 1008.2 |
| 20260904132600 | 75 | 263 | 11.0 | 27.0 | 0.00 | 0.03 | 0.00 | 67 | 1007.4 |
| 20260904132057 | 76 | 275 | 17.0 | 31.0 | 0.00 | 0.03 | 0.00 | 66 | 1006.7 |
| 20260904131636 | 76 | 263 | 14.0 | 37.0 | 0.00 | 0.03 | 0.00 | 65 | 1006.6 |
| 20260904131057 | 77 | 299 | 17.0 | 38.0 | 0.00 | 0.03 | 0.00 | 64 | 1006.6 |
| 20260904130556 | 76 | 257 | 21.0 | 38.0 | 0.00 | 0.03 | 0.00 | 64 | 1006.7 |
| 20260904130105 | 76 | 248 | 17.0 | 32.0 | 0.00 | 0.03 | 0.00 | 64 | 1006.6 |
| 20260904125557 | 77 | 253 | 19.0 | 33.0 | 0.00 | 0.03 | 0.00 | 64 | 1006.6 |
| 20260904125057 | 77 | 252 | 12.0 | 34.0 | 0.00 | 0.03 | 0.00 | 64 | 1006.7 |
| 20260904124605 | 77 | 233 | 18.0 | 34.0 | 0.00 | 0.03 | 0.00 | 64 | 1006.7 |
| 20260904124057 | 76 | 247 | 17.0 | 33.0 | 0.00 | 0.03 | 0.00 | 65 | 1006.7 |
| 20260904123558 | 76 | 267 | 15.0 | 33.0 | 0.00 | 0.03 | 0.00 | 66 | 1006.9 |
| 20260904123110 | 76 | 276 | 17.0 | 32.0 | 0.00 | 0.03 | 0.00 | 66 | 1006.7 |
| 20260904122557 | 76 | 248 | 13.0 | 26.0 | 0.00 | 0.03 | 0.00 | 67 | 1007.0 |
| 20260904122101 | 76 | 290 | 16.0 | 28.0 | 0.00 | 0.03 | 0.00 | 66 | 1006.9 |
| 20260904121607 | 76 | 238 | 16.0 | 32.0 | 0.00 | 0.03 | 0.00 | 67 | 1007.0 |
| 20260904121057 | 75 | 268 | 12.0 | 32.0 | 0.00 | 0.03 | 0.00 | 69 | 1007.1 |
| 20260904120600 | 75 | 239 | 15.0 | 32.0 | 0.00 | 0.03 | 0.00 | 69 | 1007.2 |
| 20260904120114 | 75 | 246 | 15.0 | 30.0 | 0.00 | 0.03 | 0.00 | 69 | 1007.2 |
| 20260904115556 | 74 | 254 | 14.0 | 26.0 | 0.00 | 0.03 | 0.00 | 70 | 1007.2 |
| 20260904115058 | 74 | 273 | 14.0 | 27.0 | 0.00 | 0.03 | 0.00 | 70 | 1007.4 |
| 20260904114603 | 74 | 269 | 14.0 | 27.0 | 0.00 | 0.03 | 0.00 | 71 | 1007.5 |
| 20260904114057 | 73 | 235 | 14.0 | 23.0 | 0.00 | 0.03 | 0.00 | 71 | 1007.5 |
| 20260904113556 | 73 | 259 | 15.0 | 26.0 | 0.00 | 0.03 | 0.00 | 71 | 1007.7 |
| 20260904113110 | 73 | 257 | 13.0 | 26.0 | 0.00 | 0.03 | 0.00 | 72 | 1007.6 |
| 20260904112556 | 73 | 256 | 15.0 | 26.0 | 0.00 | 0.03 | 0.00 | 71 | 1007.6 |
| 20260904112057 | 73 | 257 | 11.0 | 27.0 | 0.00 | 0.03 | 0.00 | 71 | 1007.7 |
| 20260904111601 | 73 | 273 | 15.0 | 27.0 | 0.00 | 0.03 | 0.00 | 71 | 1007.8 |
| 20260904111058 | 73 | 263 | 12.0 | 24.0 | 0.00 | 0.03 | 0.00 | 71 | 1007.8 |
| 20260904110558 | 73 | 251 | 14.0 | 26.0 | 0.00 | 0.03 | 0.00 | 71 | 1007.9 |
| 20260904110116 | 73 | 221 | 13.0 | 26.0 | 0.00 | 0.03 | 0.00 | 71 | 1007.9 |
| 20260904105556 | 72 | 264 | 13.0 | 25.0 | 0.00 | 0.03 | 0.00 | 71 | 1007.8 |
| 20260904105056 | 72 | 244 | 12.0 | 30.0 | 0.00 | 0.03 | 0.00 | 71 | 1008.1 |
| 20260904104612 | 72 | 235 | 13.0 | 30.0 | 0.00 | 0.03 | 0.00 | 72 | 1008.0 |
| 20260904104058 | 72 | 241 | 12.0 | 28.0 | 0.00 | 0.03 | 0.00 | 72 | 1008.0 |
| 20260904103558 | 72 | 247 | 14.0 | 28.0 | 0.00 | 0.03 | 0.00 | 71 | 1008.0 |
| 20260904103108 | 72 | 280 | 12.0 | 22.0 | 0.00 | 0.03 | 0.00 | 72 | 1008.1 |
| 20260904102557 | 72 | 274 | 13.0 | 29.0 | 0.00 | 0.03 | 0.00 | 72 | 1008.1 |
| 20260904102057 | 72 | 238 | 14.0 | 29.0 | 0.00 | 0.03 | 0.00 | 72 | 1008.1 |
| 20260904101604 | 73 | 238 | 13.0 | 32.0 | 0.00 | 0.03 | 0.00 | 72 | 1008.2 |
| 20260904101056 | 73 | 223 | 14.0 | 32.0 | 0.00 | 0.03 | 0.00 | 72 | 1008.3 |
| 20260904100556 | 72 | 244 | 15.0 | 32.0 | 0.00 | 0.03 | 0.00 | 73 | 1008.1 |
| 20260904100111 | 72 | 261 | 14.0 | 25.0 | 0.00 | 0.03 | 0.00 | 73 | 1008.2 |
| 20260904095557 | 72 | 238 | 11.0 | 20.0 | 0.00 | 0.03 | 0.00 | 74 | 1008.4 |
| 20260904095056 | 72 | 275 | 10.0 | 21.0 | 0.00 | 0.03 | 0.00 | 74 | 1008.5 |
| 20260904094606 | 72 | 245 | 9.0 | 22.0 | 0.00 | 0.03 | 0.00 | 73 | 1008.7 |
| 20260904094057 | 72 | 262 | 10.0 | 25.0 | 0.00 | 0.03 | 0.00 | 74 | 1008.8 |
| 20260904093557 | 72 | 251 | 11.0 | 26.0 | 0.00 | 0.03 | 0.00 | 74 | 1008.9 |
| 20260904093109 | 72 | 227 | 14.0 | 26.0 | 0.00 | 0.03 | 0.00 | 74 | 1008.9 |
| 20260904092556 | 71 | 240 | 12.0 | 23.0 | 0.00 | 0.03 | 0.00 | 74 | 1009.0 |
| 20260904092100 | 71 | 255 | 8.0 | 19.0 | 0.00 | 0.03 | 0.00 | 74 | 1009.0 |
| 20260904091605 | 71 | 225 | 11.0 | 20.0 | 0.00 | 0.03 | 0.00 | 75 | 1008.9 |
| 20260904091056 | 71 | 267 | 9.0 | 29.0 | 0.00 | 0.03 | 0.00 | 75 | 1009.0 |
| 20260904090556 | 71 | 247 | 13.0 | 29.0 | 0.00 | 0.03 | 0.00 | 75 | 1009.1 |
| 20260904090106 | 71 | 213 | 9.0 | 19.0 | 0.00 | 0.03 | 0.00 | 75 | 1009.1 |
| 20260904085556 | 71 | 223 | 8.0 | 22.0 | 0.00 | 0.03 | 0.00 | 75 | 1009.2 |
| 20260904085056 | 71 | 250 | 10.0 | 23.0 | 0.00 | 0.03 | 0.00 | 75 | 1009.3 |
| 20260904084604 | 71 | 228 | 13.0 | 23.0 | 0.00 | 0.03 | 0.00 | 74 | 1009.4 |
| 20260904084055 | 71 | 230 | 11.0 | 17.0 | 0.00 | 0.03 | 0.00 | 74 | 1009.3 |
| 20260904083557 | 72 | 259 | 11.0 | 19.0 | 0.00 | 0.03 | 0.00 | 74 | 1009.5 |
| 20260904083102 | 72 | 267 | 8.0 | 19.0 | 0.00 | 0.03 | 0.00 | 75 | 1009.4 |
| 20260904082556 | 71 | 237 | 11.0 | 19.0 | 0.00 | 0.03 | 0.00 | 75 | 1009.4 |
| 20260904082057 | 71 | 245 | 10.0 | 19.0 | 0.00 | 0.03 | 0.00 | 76 | 1009.4 |
| 20260904081607 | 70 | 253 | 11.0 | 24.0 | 0.00 | 0.03 | 0.00 | 77 | 1009.6 |
| 20260904081056 | 70 | 237 | 12.0 | 24.0 | 0.00 | 0.03 | 0.00 | 78 | 1009.8 |
| 20260904080556 | 70 | 225 | 11.0 | 21.0 | 0.00 | 0.03 | 0.00 | 78 | 1009.9 |
| 20260904080112 | 70 | 239 | 10.0 | 18.0 | 0.00 | 0.03 | 0.00 | 79 | 1009.9 |
| 20260904075557 | 70 | 234 | 8.0 | 18.0 | 0.00 | 0.03 | 0.00 | 79 | 1010.0 |
| 20260904075057 | 70 | 254 | 9.0 | 20.0 | 0.00 | 0.03 | 0.00 | 79 | 1009.9 |
| 20260904074636 | 70 | 259 | 8.0 | 20.0 | 0.00 | 0.03 | 0.00 | 79 | 1009.9 |
| 20260904074058 | 70 | 277 | 8.0 | 20.0 | 0.00 | 0.03 | 0.00 | 79 | 1009.9 |
| 20260904073602 | 70 | 229 | 10.0 | 20.0 | 0.00 | 0.03 | 0.00 | 79 | 1009.8 |
| 20260904073101 | 70 | 201 | 9.0 | 18.0 | 0.00 | 0.03 | 0.00 | 80 | 1009.8 |
| 20260904072558 | 69 | 216 | 9.0 | 17.0 | 0.00 | 0.03 | 0.00 | 81 | 1009.8 |
| 20260904072058 | 69 | 247 | 11.0 | 17.0 | 0.00 | 0.03 | 0.00 | 81 | 1009.9 |
| 20260904071605 | 69 | 227 | 8.0 | 16.0 | 0.00 | 0.03 | 0.00 | 83 | 1010.0 |
| 20260904071057 | 68 | 217 | 8.0 | 16.0 | 0.00 | 0.03 | 0.00 | 83 | 1010.0 |
| 20260904070602 | 68 | 247 | 7.0 | 16.0 | 0.00 | 0.03 | 0.00 | 84 | 1010.2 |
| 20260904070108 | 68 | 249 | 8.0 | 15.0 | 0.00 | 0.03 | 0.00 | 84 | 1010.3 |
| 20260904065557 | 68 | 248 | 6.0 | 15.0 | 0.00 | 0.03 | 0.00 | 85 | 1010.3 |
| 20260904065058 | 68 | 235 | 6.0 | 18.0 | 0.00 | 0.03 | 0.00 | 85 | 1010.4 |
| 20260904064604 | 68 | 242 | 6.0 | 22.0 | 0.00 | 0.03 | 0.00 | 85 | 1010.3 |
| 20260904064100 | 67 | 261 | 12.0 | 22.0 | 0.00 | 0.03 | 0.00 | 84 | 1010.5 |
| 20260904063600 | 68 | 261 | 10.0 | 18.0 | 0.00 | 0.03 | 0.00 | 84 | 1010.6 |
| 20260904063111 | 67 | 212 | 9.0 | 17.0 | 0.00 | 0.03 | 0.00 | 84 | 1010.7 |
| 20260904062600 | 67 | 234 | 8.0 | 14.0 | 0.00 | 0.03 | 0.00 | 85 | 1010.5 |
| 20260904062057 | 67 | 195 | 6.0 | 13.0 | 0.00 | 0.03 | 0.00 | 85 | 1010.6 |
| 20260904061606 | 67 | 214 | 5.0 | 15.0 | 0.00 | 0.03 | 0.00 | 86 | 1010.7 |
| 20260904061057 | 66 | 231 | 7.0 | 15.0 | 0.00 | 0.03 | 0.00 | 87 | 1010.7 |
| 20260904060558 | 66 | 236 | 5.0 | 14.0 | 0.00 | 0.03 | 0.00 | 87 | 1010.9 |
| 20260904060113 | 66 | 213 | 3.0 | 14.0 | 0.00 | 0.03 | 0.00 | 87 | 1010.9 |
| 20260904055557 | 66 | 224 | 5.0 | 16.0 | 0.00 | 0.03 | 0.00 | 87 | 1011.0 |
| 20260904055057 | 65 | 234 | 7.0 | 16.0 | 0.00 | 0.03 | 0.00 | 88 | 1011.1 |
| 20260904054608 | 65 | 241 | 8.0 | 14.0 | 0.00 | 0.03 | 0.00 | 88 | 1011.1 |
| 20260904054058 | 65 | 229 | 6.0 | 13.0 | 0.00 | 0.02 | 0.00 | 89 | 1011.4 |
| 20260904053558 | 65 | 217 | 6.0 | 13.0 | 0.00 | 0.02 | 0.00 | 89 | 1011.4 |
| 20260904053101 | 64 | 201 | 7.0 | 13.0 | 0.00 | 0.02 | 0.00 | 89 | 1011.5 |
| 20260904052558 | 64 | 238 | 6.0 | 11.0 | 0.00 | 0.02 | 0.00 | 90 | 1011.5 |
| 20260904052059 | 64 | 268 | 4.0 | 10.0 | 0.00 | 0.02 | 0.00 | 90 | 1011.6 |
| 20260904051608 | 63 | 234 | 3.0 | 9.0 | 0.00 | 0.02 | 0.00 | 90 | 1011.6 |
| 20260904051057 | 63 | 230 | 4.0 | 9.0 | 0.00 | 0.02 | 0.00 | 90 | 1011.6 |
| 20260904050557 | 63 | 218 | 4.0 | 9.0 | 0.00 | 0.02 | 0.00 | 90 | 1011.6 |
| 20260904050108 | 63 | 220 | 3.0 | 8.0 | 0.00 | 0.02 | 0.00 | 90 | 1011.7 |
| 20260904045558 | 63 | 219 | 3.0 | 9.0 | 0.00 | 0.02 | 0.00 | 90 | 1011.6 |
| 20260904045059 | 63 | 225 | 3.0 | 9.0 | 0.00 | 0.02 | 0.00 | 90 | 1011.6 |
| 20260904044609 | 63 | 213 | 3.0 | 7.0 | 0.00 | 0.02 | 0.00 | 90 | 1011.7 |
| 20260904044101 | 63 | 220 | 3.0 | 9.0 | 0.00 | 0.02 | 0.00 | 90 | 1011.8 |
| 20260904043558 | 63 | 217 | 4.0 | 9.0 | 0.00 | 0.02 | 0.00 | 90 | 1011.9 |
| 20260904043100 | 63 | 219 | 3.0 | 7.0 | 0.00 | 0.02 | 0.00 | 89 | 1011.9 |
| 20260904042558 | 63 | 232 | 3.0 | 8.0 | 0.00 | 0.02 | 0.00 | 89 | 1012.0 |
| 20260904042057 | 63 | 232 | 3.0 | 8.0 | 0.00 | 0.02 | 0.00 | 89 | 1012.1 |
| 20260904041559 | 63 | 213 | 4.0 | 8.0 | 0.00 | 0.02 | 0.00 | 89 | 1012.2 |
| 20260904041057 | 63 | 225 | 4.0 | 10.0 | 0.00 | 0.02 | 0.00 | 89 | 1012.2 |
| 20260904040601 | 63 | 223 | 3.0 | 10.0 | 0.00 | 0.02 | 0.00 | 89 | 1012.2 |
| 20260904040110 | 63 | 223 | 3.0 | 8.0 | 0.00 | 0.02 | 0.00 | 89 | 1012.3 |
| 20260904035557 | 63 | 228 | 4.0 | 9.0 | 0.00 | 0.02 | 0.00 | 90 | 1012.5 |
| 20260904035058 | 63 | 203 | 5.0 | 9.0 | 0.00 | 0.02 | 0.00 | 90 | 1012.6 |
| 20260904034615 | 63 | 209 | 4.0 | 8.0 | 0.00 | 0.02 | 0.00 | 90 | 1012.6 |
| 20260904034057 | 63 | 222 | 3.0 | 8.0 | 0.00 | 0.02 | 0.00 | 90 | 1012.7 |
| 20260904033558 | 63 | 217 | 3.0 | 8.0 | 0.00 | 0.02 | 0.00 | 90 | 1012.8 |
| 20260904033100 | 62 | 225 | 3.0 | 9.0 | 0.00 | 0.02 | 0.00 | 90 | 1012.9 |
| 20260904032557 | 62 | 227 | 4.0 | 9.0 | 0.00 | 0.02 | 0.00 | 90 | 1013.0 |
| 20260904032057 | 62 | 221 | 3.0 | 8.0 | 0.00 | 0.02 | 0.00 | 90 | 1013.1 |
| 20260904031606 | 62 | 244 | 3.0 | 8.0 | 0.00 | 0.02 | 0.00 | 90 | 1013.1 |
| 20260904031057 | 62 | 221 | 4.0 | 8.0 | 0.00 | 0.02 | 0.00 | 90 | 1013.2 |
| 20260904030601 | 62 | 225 | 4.0 | 9.0 | 0.00 | 0.02 | 0.00 | 90 | 1013.2 |
| 20260904030106 | 62 | 225 | 3.0 | 9.0 | 0.00 | 0.02 | 0.00 | 91 | 1013.2 |
| 20260904025559 | 62 | 209 | 5.0 | 9.0 | 0.00 | 0.02 | 0.00 | 91 | 1013.3 |
| 20260904025057 | 62 | 221 | 3.0 | 8.0 | 0.00 | 0.02 | 0.00 | 90 | 1013.5 |
| 20260904024602 | 61 | 240 | 2.0 | 7.0 | 0.00 | 0.02 | 0.00 | 90 | 1013.5 |
| 20260904024058 | 61 | 215 | 3.0 | 7.0 | 0.00 | 0.02 | 0.00 | 90 | 1013.5 |
| 20260904023557 | 61 | 217 | 3.0 | 7.0 | 0.00 | 0.02 | 0.00 | 90 | 1013.6 |
| 20260904023107 | 61 | 194 | 2.0 | 7.0 | 0.00 | 0.02 | 0.00 | 90 | 1013.5 |
| 20260904022558 | 61 | 215 | 3.0 | 7.0 | 0.00 | 0.02 | 0.00 | 90 | 1013.7 |
| 20260904022058 | 61 | 214 | 3.0 | 5.0 | 0.00 | 0.02 | 0.00 | 90 | 1013.7 |
| 20260904021608 | 61 | 221 | 3.0 | 7.0 | 0.00 | 0.02 | 0.00 | 90 | 1013.9 |
| 20260904021057 | 61 | 202 | 3.0 | 7.0 | 0.00 | 0.02 | 0.00 | 90 | 1013.8 |
| 20260904020557 | 61 | 217 | 1.0 | 5.0 | 0.00 | 0.02 | 0.00 | 90 | 1013.9 |
| 20260904020107 | 61 | 214 | 2.0 | 5.0 | 0.00 | 0.02 | 0.00 | 89 | 1013.8 |
| 20260904015559 | 61 | 215 | 1.0 | 4.0 | 0.00 | 0.02 | 0.00 | 89 | 1013.9 |
| 20260904015057 | 61 | 216 | 2.0 | 5.0 | 0.00 | 0.02 | 0.00 | 89 | 1014.1 |
| 20260904014604 | 61 | 219 | 2.0 | 5.0 | 0.00 | 0.02 | 0.00 | 89 | 1014.0 |
| 20260904014057 | 61 | 218 | 1.0 | 5.0 | 0.00 | 0.02 | 0.00 | 89 | 1014.0 |
| 20260904013556 | 61 | 221 | 2.0 | 5.0 | 0.00 | 0.02 | 0.00 | 89 | 1014.0 |
| 20260904013105 | 62 | 225 | 1.0 | 6.0 | 0.00 | 0.02 | 0.00 | 89 | 1014.0 |
| 20260904012558 | 62 | 227 | 2.0 | 6.0 | 0.00 | 0.02 | 0.00 | 89 | 1014.1 |
| 20260904012059 | 62 | 228 | 2.0 | 7.0 | 0.00 | 0.02 | 0.00 | 89 | 1014.1 |
| 20260904011559 | 62 | 226 | 2.0 | 7.0 | 0.00 | 0.02 | 0.00 | 89 | 1014.1 |
| 20260904011056 | 62 | 241 | 3.0 | 8.0 | 0.00 | 0.02 | 0.00 | 89 | 1014.2 |
| 20260904010557 | 61 | 240 | 3.0 | 8.0 | 0.00 | 0.02 | 0.00 | 89 | 1014.4 |
| 20260904010106 | 61 | 252 | 3.0 | 7.0 | 0.00 | 0.02 | 0.00 | 89 | 1014.5 |
| 20260904005558 | 62 | 236 | 3.0 | 8.0 | 0.00 | 0.02 | 0.00 | 89 | 1014.5 |
| 20260904005100 | 62 | 240 | 3.0 | 8.0 | 0.00 | 0.02 | 0.00 | 89 | 1014.5 |
| 20260904004610 | 62 | 240 | 3.0 | 8.0 | 0.00 | 0.02 | 0.00 | 89 | 1014.5 |
| 20260904004057 | 62 | 234 | 2.0 | 5.0 | 0.00 | 0.02 | 0.00 | 89 | 1014.5 |
| 20260904003557 | 62 | 234 | 2.0 | 5.0 | 0.00 | 0.02 | 0.00 | 89 | 1014.6 |
| 20260904003100 | 62 | 232 | 2.0 | 6.0 | 0.00 | 0.02 | 0.00 | 89 | 1014.7 |
| 20260904002557 | 62 | 232 | 3.0 | 6.0 | 0.00 | 0.02 | 0.00 | 89 | 1014.7 |
| 20260904002100 | 62 | 227 | 3.0 | 6.0 | 0.00 | 0.02 | 0.00 | 89 | 1014.7 |
| 20260904001605 | 62 | 227 | 3.0 | 7.0 | 0.00 | 0.02 | 0.00 | 89 | 1014.7 |
| 20260904001057 | 62 | 226 | 3.0 | 7.0 | 0.00 | 0.02 | 0.00 | 89 | 1014.8 |
| 20260904000558 | 62 | 231 | 4.0 | 8.0 | 0.00 | 0.02 | 0.00 | 89 | 1014.9 |
| 20260904000136 | 62 | 223 | 3.0 | 9.0 | 0.00 | 0.02 | 0.00 | 89 | 1014.9 |
| 20260903235559 | 62 | 232 | 4.0 | 9.0 | 0.00 | 0.02 | 0.00 | 89 | 1015.0 |
| 20260903235101 | 62 | 236 | 3.0 | 7.0 | 0.00 | 0.02 | 0.00 | 89 | 1015.1 |
| 20260903234604 | 62 | 232 | 3.0 | 7.0 | 0.00 | 0.02 | 0.00 | 89 | 1015.1 |
| 20260903234057 | 62 | 242 | 3.0 | 7.0 | 0.00 | 0.02 | 0.00 | 89 | 1015.1 |
| 20260903233557 | 62 | 245 | 3.0 | 7.0 | 0.00 | 0.02 | 0.00 | 90 | 1015.1 |
| 20260903233112 | 62 | 244 | 3.0 | 6.0 | 0.00 | 0.02 | 0.00 | 90 | 1015.2 |
| 20260903232556 | 62 | 227 | 3.0 | 6.0 | 0.00 | 0.02 | 0.00 | 90 | 1015.0 |
| 20260903232057 | 62 | 227 | 2.0 | 8.0 | 0.00 | 0.02 | 0.00 | 90 | 1015.1 |
| 20260903231610 | 62 | 227 | 3.0 | 8.0 | 0.00 | 0.02 | 0.00 | 90 | 1015.1 |
| 20260903231057 | 63 | 220 | 3.0 | 8.0 | 0.00 | 0.02 | 0.00 | 91 | 1015.1 |
| 20260903230558 | 63 | 238 | 3.0 | 7.0 | 0.00 | 0.02 | 0.00 | 91 | 1015.2 |
| 20260903230114 | 63 | 242 | 3.0 | 7.0 | 0.00 | 0.02 | 0.00 | 91 | 1015.5 |
| 20260903225557 | 63 | 238 | 3.0 | 7.0 | 0.00 | 0.02 | 0.00 | 91 | 1015.4 |
| 20260903225057 | 63 | 236 | 2.0 | 5.0 | 0.00 | 0.02 | 0.00 | 91 | 1015.4 |
| 20260903224610 | 63 | 244 | 2.0 | 5.0 | 0.00 | 0.02 | 0.00 | 91 | 1015.3 |
| 20260903224057 | 63 | 250 | 2.0 | 3.0 | 0.00 | 0.02 | 0.00 | 92 | 1015.3 |
| 20260903223558 | 63 | 250 | 1.0 | 4.0 | 0.00 | 0.02 | 0.00 | 92 | 1015.4 |
| 20260903223059 | 63 | 250 | 2.0 | 4.0 | 0.00 | 0.02 | 0.00 | 91 | 1015.5 |
| 20260903222557 | 64 | 250 | 2.0 | 4.0 | 0.00 | 0.02 | 0.00 | 91 | 1015.5 |
| 20260903222059 | 64 | 251 | 2.0 | 4.0 | 0.00 | 0.02 | 0.00 | 92 | 1015.5 |
| 20260903221605 | 63 | 252 | 2.0 | 4.0 | 0.00 | 0.02 | 0.00 | 92 | 1015.5 |
| 20260903221056 | 64 | 254 | 0.0 | 2.0 | 0.00 | 0.02 | 0.00 | 92 | 1015.6 |
| 20260903220556 | 64 | 258 | 1.0 | 4.0 | 0.02 | 0.02 | 0.00 | 92 | 1015.7 |
| 20260903220121 | 64 | 0 | 1.0 | 4.0 | 0.02 | 0.02 | 0.00 | 91 | 1015.6 |
| 20260903215559 | 64 | 258 | 2.0 | 4.0 | 0.02 | 0.02 | 0.02 | 91 | 1015.6 |
| 20260903215058 | 64 | 267 | 2.0 | 7.0 | 0.02 | 0.02 | 0.02 | 90 | 1015.5 |
| 20260903214604 | 64 | 267 | 1.0 | 7.0 | 0.02 | 0.02 | 0.02 | 90 | 1015.3 |
| 20260903214057 | 64 | 267 | 3.0 | 7.0 | 0.02 | 0.02 | 0.02 | 90 | 1015.5 |
| 20260903213601 | 64 | 238 | 3.0 | 9.0 | 0.02 | 0.02 | 0.02 | 89 | 1015.5 |
| 20260903213101 | 64 | 263 | 4.0 | 9.0 | 0.02 | 0.02 | 0.02 | 89 | 1015.5 |
| 20260903212557 | 64 | 267 | 5.0 | 10.0 | 0.02 | 0.02 | 0.02 | 89 | 1015.6 |
| 20260903212058 | 65 | 269 | 5.0 | 15.0 | 0.02 | 0.02 | 0.02 | 88 | 1015.7 |
| 20260903211621 | 65 | 269 | 7.0 | 15.0 | 0.02 | 0.02 | 0.02 | 88 | 1015.7 |
| 20260903211100 | 65 | 264 | 3.0 | 9.0 | 0.02 | 0.02 | 0.02 | 88 | 1015.6 |
| 20260903210557 | 65 | 273 | 2.0 | 6.0 | 0.00 | 0.00 | 0.00 | 86 | 1015.6 |
| 20260903210113 | 65 | 273 | 2.0 | 7.0 | 0.00 | 0.00 | 0.00 | 86 | 1015.4 |
| 20260903205556 | 65 | 272 | 2.0 | 7.0 | 0.00 | 0.00 | 0.00 | 86 | 1015.3 |
| 20260903205056 | 65 | 275 | 2.0 | 7.0 | 0.00 | 0.00 | 0.00 | 85 | 1015.4 |
| 20260903204604 | 66 | 274 | 1.0 | 6.0 | 0.00 | 0.00 | 0.00 | 84 | 1015.3 |
| 20260903204057 | 66 | 286 | 2.0 | 8.0 | 0.00 | 0.00 | 0.00 | 84 | 1015.4 |
| 20260903203556 | 66 | 280 | 3.0 | 9.0 | 0.00 | 0.00 | 0.00 | 84 | 1015.4 |
| 20260903203100 | 66 | 252 | 3.0 | 10.0 | 0.00 | 0.00 | 0.00 | 83 | 1015.2 |
| 20260903202558 | 66 | 246 | 6.0 | 10.0 | 0.00 | 0.00 | 0.00 | 84 | 1015.4 |
| 20260903202057 | 66 | 238 | 5.0 | 11.0 | 0.00 | 0.00 | 0.00 | 84 | 1015.3 |
| 20260903201605 | 65 | 251 | 5.0 | 12.0 | 0.00 | 0.00 | 0.00 | 84 | 1015.3 |
| 20260903201057 | 66 | 259 | 5.0 | 12.0 | 0.00 | 0.00 | 0.00 | 84 | 1015.2 |
| 20260903200557 | 66 | 215 | 5.0 | 12.0 | 0.00 | 0.00 | 0.00 | 84 | 1015.2 |
| 20260903200101 | 66 | 232 | 6.0 | 11.0 | 0.00 | 0.00 | 0.00 | 84 | 1015.3 |
| 20260903195600 | 66 | 257 | 5.0 | 12.0 | 0.00 | 0.00 | 0.00 | 83 | 1015.2 |
| 20260903195056 | 66 | 225 | 4.0 | 12.0 | 0.00 | 0.00 | 0.00 | 84 | 1015.3 |
| 20260903194559 | 66 | 237 | 6.0 | 15.0 | 0.00 | 0.00 | 0.00 | 83 | 1015.4 |
| 20260903194057 | 66 | 234 | 7.0 | 15.0 | 0.00 | 0.00 | 0.00 | 83 | 1015.3 |
| 20260903193600 | 66 | 248 | 4.0 | 12.0 | 0.00 | 0.00 | 0.00 | 83 | 1015.5 |
| 20260903193103 | 66 | 250 | 5.0 | 12.0 | 0.00 | 0.00 | 0.00 | 83 | 1015.5 |
| 20260903192557 | 66 | 261 | 5.0 | 12.0 | 0.00 | 0.00 | 0.00 | 83 | 1015.6 |
| 20260903192057 | 66 | 268 | 4.0 | 12.0 | 0.00 | 0.00 | 0.00 | 82 | 1015.5 |
| 20260903191600 | 67 | 270 | 6.0 | 11.0 | 0.00 | 0.00 | 0.00 | 82 | 1015.4 |
| 20260903191057 | 67 | 244 | 6.0 | 11.0 | 0.00 | 0.00 | 0.00 | 81 | 1015.5 |
| 20260903190557 | 67 | 240 | 3.0 | 11.0 | 0.00 | 0.00 | 0.00 | 81 | 1015.5 |
| 20260903190059 | 67 | 238 | 6.0 | 14.0 | 0.00 | 0.00 | 0.00 | 81 | 1015.6 |
| 20260903185556 | 67 | 257 | 6.0 | 14.0 | 0.00 | 0.00 | 0.00 | 81 | 1015.5 |
| 20260903185056 | 67 | 247 | 6.0 | 12.0 | 0.00 | 0.00 | 0.00 | 81 | 1015.5 |
| 20260903184608 | 67 | 243 | 6.0 | 13.0 | 0.00 | 0.00 | 0.00 | 81 | 1015.5 |
| 20260903184056 | 67 | 250 | 5.0 | 13.0 | 0.00 | 0.00 | 0.00 | 81 | 1015.5 |
| 20260903183556 | 66 | 240 | 7.0 | 14.0 | 0.00 | 0.00 | 0.00 | 81 | 1015.4 |
| 20260903183106 | 66 | 230 | 6.0 | 14.0 | 0.00 | 0.00 | 0.00 | 81 | 1015.5 |
| 20260903182557 | 66 | 246 | 7.0 | 14.0 | 0.00 | 0.00 | 0.00 | 80 | 1015.3 |
| 20260903182056 | 66 | 219 | 6.0 | 14.0 | 0.00 | 0.00 | 0.00 | 80 | 1015.4 |
| 20260903181601 | 66 | 243 | 5.0 | 14.0 | 0.00 | 0.00 | 0.00 | 80 | 1015.3 |
| 20260903181057 | 66 | 246 | 7.0 | 14.0 | 0.00 | 0.00 | 0.00 | 80 | 1015.2 |
| 20260903180557 | 66 | 246 | 6.0 | 12.0 | 0.00 | 0.00 | 0.00 | 81 | 1015.1 |
| 20260903180112 | 66 | 242 | 5.0 | 12.0 | 0.00 | 0.00 | 0.00 | 80 | 1015.2 |